PST,Max TemperatureF,Mean TemperatureF,Min TemperatureF,Max Dew PointF,MeanDew PointF,Min DewpointF,Max Humidity, Mean Humidity, Min Humidity, Max Sea Level PressureIn, Mean Sea Level PressureIn, Min Sea Level PressureIn, Max VisibilityMiles, Mean VisibilityMiles, Min VisibilityMiles, Max Wind SpeedMPH, Mean Wind SpeedMPH, Max Gust SpeedMPH,PrecipitationIn, CloudCover, Events, WindDirDegrees
2012-12-1,77,64,52,51,48,44,80,59,37,30.09,30.02,29.98,10,10,10,6,3,,0.00,0,,318
2012-12-2,79,64,50,51,47,41,71,55,34,30.05,29.98,29.93,10,10,10,17,5,,0.00,0,,189
2012-12-3,77,66,54,50,47,44,75,56,36,30.13,30.06,29.97,10,10,10,8,4,,0.00,0,,23
2012-12-4,79,66,53,48,45,40,74,51,30,30.23,30.15,30.11,10,10,10,7,3,,0.00,0,,324
2012-12-5,77,64,51,46,42,38,64,47,30,30.11,30.01,29.91,10,10,10,8,3,,0.00,0,,287
2012-12-6,75,64,53,44,40,37,59,46,31,29.93,29.87,29.80,10,10,10,6,2,,0.00,0,,267
2012-12-7,78,63,48,42,34,26,61,38,19,29.95,29.90,29.86,10,10,10,13,2,,0.00,0,,345
2012-12-8,72,58,44,32,27,24,49,33,21,29.97,29.91,29.86,10,10,10,9,4,,0.00,0,,314
2012-12-9,73,58,42,33,23,18,51,28,15,30.19,30.03,29.92,10,10,10,20,7,24,0.00,0,,333
2012-12-10,70,60,50,21,18,17,31,22,14,30.22,30.13,30.04,10,10,10,16,10,22,0.00,0,,331
2012-12-11,69,57,45,29,23,18,40,30,19,30.10,30.01,29.95,10,10,10,7,3,,0.00,0,,337
2012-12-12,73,56,39,32,25,19,50,34,19,29.97,29.89,29.82,10,10,10,14,5,,0.00,0,,132
2012-12-13,70,60,51,52,44,35,97,65,37,29.83,29.75,29.64,10,9,3,16,4,,0.70,4,Rain,290
2012-12-14,60,54,48,52,44,37,100,70,42,29.97,29.82,29.66,10,10,10,24,10,30,0.04,5,Rain,208
2012-12-15,55,50,46,48,46,44,97,84,69,30.05,29.97,29.92,10,9,4,6,2,,0.08,5,Rain,145
2012-12-16,59,51,43,48,45,41,100,79,51,30.16,30.11,30.05,10,9,4,7,3,,0.00,2,,67
2012-12-17,64,57,50,48,45,43,89,69,50,30.15,30.07,29.94,10,10,10,10,2,,0.00,4,,169
2012-12-18,64,55,46,50,43,19,90,66,25,29.94,29.82,29.70,10,10,10,18,5,23,0.00,3,Rain,217
2012-12-19,57,51,43,26,20,11,48,32,16,30.38,30.18,29.90,10,10,10,17,10,24,0.00,0,,342
2012-12-20,55,44,33,29,24,20,72,46,25,30.40,30.28,30.19,10,10,10,15,4,,0.00,0,,324
2012-12-21,59,48,36,34,28,24,67,49,27,30.19,30.13,30.07,10,10,10,7,3,,0.00,0,,262
2012-12-22,60,50,39,36,32,28,83,57,31,30.14,30.09,30.06,10,10,10,7,2,,0.00,0,,300
2012-12-23,60,48,35,39,35,30,89,68,32,30.18,30.09,30.03,10,10,10,7,3,,0.00,0,,351
2012-12-24,68,54,39,45,38,19,89,60,23,30.06,29.97,29.87,10,10,10,23,4,30,0.00,0,,350
2012-12-25,57,50,43,29,17,6,58,28,15,30.19,30.09,30.00,10,10,10,20,12,,0.00,0,,348
2012-12-26,62,50,39,32,29,22,73,51,24,29.98,29.90,29.83,10,10,10,8,3,,0.00,0,,72
2012-12-27,61,48,35,33,29,25,82,50,26,30.08,29.95,29.88,10,10,10,12,4,,0.00,0,,338
2012-12-28,60,48,35,30,27,23,72,49,24,30.22,30.14,30.08,10,10,10,7,3,,0.00,0,,11
2012-12-29,57,46,36,31,29,26,70,54,31,30.13,30.04,29.96,10,10,10,7,3,,0.00,0,,38
2012-12-30,59,49,39,32,30,28,70,51,31,29.99,29.93,29.86,10,10,10,9,4,,0.00,4,,356
2012-12-31,57,48,39,31,22,17,68,40,21,30.25,30.16,30.01,10,10,10,12,6,,0.00,0,,320